DL6MAA-11 Weather Reports


time (UTC)temp
C
wind
direction
speed
KPH
gust
KPH
rain 1hr
cm
rain 24hr
cm
rain mn
cm
humidity
%
barometer
mb
20260904145701 29 186 4.8 0.0 0.00 0.00 0.00 37 1013.7
20260904145159 29 61 6.4 0.0 0.00 0.00 0.00 37 1013.7
20260904144701 29 276 4.8 0.0 0.00 0.00 0.00 37 1013.7
20260904144202 29 360 6.4 0.0 0.00 0.00 0.00 37 1013.8
20260904143655 29 360 4.8 0.0 0.00 0.00 0.00 37 1013.8
20260904143158 29 299 6.4 0.0 0.00 0.00 0.00 37 1013.8
20260904142703 29 138 11.3 0.0 0.00 0.00 0.00 38 1013.9
20260904142153 29 360 11.3 0.0 0.00 0.00 0.00 37 1013.9
20260904141656 28 275 11.3 0.0 0.00 0.00 0.00 38 1013.9
20260904141204 28 360 11.3 0.0 0.00 0.00 0.00 37 1014.2
20260904140707 28 245 12.9 0.0 0.00 0.00 0.00 38 1014.2
20260904140150 28 275 14.5 0.0 0.00 0.00 0.00 38 1014.2
20260904135711 28 156 11.3 0.0 0.00 0.00 0.00 38 1014.4
20260904135157 29 153 9.7 0.0 0.00 0.00 0.00 38 1014.4
20260904134709 29 360 9.7 0.0 0.00 0.00 0.00 36 1014.4
20260904134157 29 163 8.0 0.0 0.00 0.00 0.00 37 1014.4
20260904133703 29 217 6.4 0.0 0.00 0.00 0.00 37 1014.4
20260904133155 29 265 6.4 0.0 0.00 0.00 0.00 37 1014.4
20260904132657 29 304 4.8 0.0 0.00 0.00 0.00 37 1014.4
20260904132205 29 360 3.2 0.0 0.00 0.00 0.00 38 1014.4
20260904131652 29 187 3.2 0.0 0.00 0.00 0.00 38 1014.4
20260904131159 29 278 3.2 0.0 0.00 0.00 0.00 38 1014.6
20260904130705 28 184 3.2 0.0 0.00 0.00 0.00 38 1014.6
20260904130149 28 140 3.2 0.0 0.00 0.00 0.00 38 1014.6
20260904125657 28 0.0 0.0 0.00 0.00 0.00 38 1015.0
20260904125207 28 147 4.8 0.0 0.00 0.00 0.00 39 1015.0
20260904124653 28 186 4.8 0.0 0.00 0.00 0.00 38 1015.0
20260904124158 28 233 4.8 0.0 0.00 0.00 0.00 38 1015.3
20260904123704 28 217 3.2 0.0 0.00 0.00 0.00 38 1015.3
20260904123207 28 161 4.8 0.0 0.00 0.00 0.00 39 1015.3
20260904122650 28 148 4.8 0.0 0.00 0.00 0.00 38 1015.5
20260904122158 28 196 4.8 0.0 0.00 0.00 0.00 38 1015.5
20260904121700 28 200 6.4 0.0 0.00 0.00 0.00 39 1015.5
20260904121202 28 360 8.0 0.0 0.00 0.00 0.00 38 1015.9
20260904120710 28 236 12.9 0.0 0.00 0.00 0.00 39 1015.9
20260904120153 27 281 12.9 0.0 0.00 0.00 0.00 38 1015.9
20260904115658 28 284 8.0 0.0 0.00 0.00 0.00 37 1015.7
20260904115201 28 217 4.8 0.0 0.00 0.00 0.00 39 1015.7
20260904114711 28 267 3.2 0.0 0.00 0.00 0.00 40 1015.7
20260904114154 28 360 4.8 0.0 0.00 0.00 0.00 40 1015.9
20260904113652 27 360 4.8 0.0 0.00 0.00 0.00 40 1015.9
20260904113204 28 360 4.8 0.0 0.00 0.00 0.00 40 1015.9
20260904112707 27 175 6.4 0.0 0.00 0.00 0.00 41 1016.4
20260904112153 27 168 9.7 0.0 0.00 0.00 0.00 41 1016.4
20260904111659 27 304 6.4 0.0 0.00 0.00 0.00 41 1016.4
20260904111201 27 214 4.8 0.0 0.00 0.00 0.00 42 1016.8
20260904110703 27 176 8.0 0.0 0.00 0.00 0.00 42 1016.8
20260904110204 27 360 6.4 0.0 0.00 0.00 0.00 41 1016.8
20260904105652 27 271 3.2 0.0 0.00 0.00 0.00 41 1017.0
20260904105202 27 169 3.2 0.0 0.00 0.00 0.00 41 1017.0
20260904104704 27 360 4.8 0.0 0.00 0.00 0.00 41 1017.0
20260904104156 26 194 11.3 0.0 0.00 0.00 0.00 43 1017.4
20260904103657 26 360 14.5 0.0 0.00 0.00 0.00 41 1017.4
20260904103159 27 265 9.7 0.0 0.00 0.00 0.00 41 1017.4
20260904102704 26 300 9.7 0.0 0.00 0.00 0.00 43 1017.6
20260904102210 26 315 8.0 0.0 0.00 0.00 0.00 43 1017.6
20260904101652 26 213 4.8 0.0 0.00 0.00 0.00 43 1017.6
20260904101156 26 290 4.8 0.0 0.00 0.00 0.00 43 1017.8
20260904100707 26 180 4.8 0.0 0.00 0.00 0.00 43 1017.8
20260904100210 26 274 8.0 0.0 0.00 0.00 0.00 44 1017.8
20260904095656 26 175 9.7 0.0 0.00 0.00 0.00 43 1018.1
20260904095158 26 288 6.4 0.0 0.00 0.00 0.00 44 1018.1
20260904094702 26 141 4.8 0.0 0.00 0.00 0.00 44 1018.1
20260904094206 26 360 3.2 0.0 0.00 0.00 0.00 45 1018.4
20260904093706 25 227 3.2 0.0 0.00 0.00 0.00 44 1018.4
20260904093154 25 180 4.8 0.0 0.00 0.00 0.00 45 1018.4
20260904092655 25 105 4.8 0.0 0.00 0.00 0.00 46 1018.7
20260904092200 25 245 4.8 0.0 0.00 0.00 0.00 47 1018.7
20260904091654 25 283 6.4 0.0 0.00 0.00 0.00 47 1018.7
20260904091155 25 218 4.8 0.0 0.00 0.00 0.00 46 1018.9
20260904090658 25 360 1.6 0.0 0.00 0.00 0.00 47 1018.9
20260904090205 24 181 3.2 0.0 0.00 0.00 0.00 48 1018.9
20260904085653 24 182 4.8 0.0 0.00 0.00 0.00 48 1018.9
20260904085200 23 269 3.2 0.0 0.00 0.00 0.00 49 1018.9
20260904084701 23 255 3.2 0.0 0.00 0.00 0.00 49 1018.9
20260904084211 23 205 3.2 0.0 0.00 0.00 0.00 50 1018.1
20260904083709 23 161 4.8 0.0 0.00 0.00 0.00 51 1018.1
20260904083154 23 232 6.4 0.0 0.00 0.00 0.00 51 1018.1
20260904082659 23 286 4.8 0.0 0.00 0.00 0.00 50 1018.1
20260904082205 23 277 3.2 0.0 0.00 0.00 0.00 51 1018.1
20260904081704 22 275 1.6 0.0 0.00 0.00 0.00 52 1018.1
20260904081206 22 210 1.6 0.0 0.00 0.00 0.00 52 1018.2
20260904080655 22 171 1.6 0.0 0.00 0.00 0.00 52 1018.2
20260904080211 22 269 3.2 0.0 0.00 0.00 0.00 53 1018.2
20260904075653 22 260 3.2 0.0 0.00 0.00 0.00 54 1018.4
20260904075201 22 360 3.2 0.0 0.00 0.00 0.00 54 1018.4
20260904074703 21 275 3.2 0.0 0.00 0.00 0.00 55 1018.4
20260904074154 21 202 3.2 0.0 0.00 0.00 0.00 55 1018.6
20260904073706 21 213 3.2 0.0 0.00 0.00 0.00 55 1018.6
20260904073157 21 360 1.6 0.0 0.00 0.00 0.00 57 1018.6
20260904072703 20 238 1.6 0.0 0.00 0.00 0.00 59 1018.8
20260904072211 20 360 1.6 0.0 0.00 0.00 0.00 60 1018.8
20260904071656 20 178 1.6 0.0 0.00 0.00 0.00 60 1018.8
20260904071154 19 360 1.6 0.0 0.00 0.00 0.00 60 1018.7
20260904070709 19 269 1.6 0.0 0.00 0.00 0.00 62 1018.7
20260904070153 18 283 1.6 0.0 0.00 0.00 0.00 63 1018.7
20260904065706 18 209 0.0 0.0 0.00 0.00 0.00 65 1018.7
20260904065207 18 198 0.0 0.0 0.00 0.00 0.00 66 1018.7
20260904064656 18 196 0.0 0.0 0.00 0.00 0.00 67 1018.7
20260904064202 17 360 0.0 0.0 0.00 0.00 0.00 66 1018.8
20260904063708 17 192 0.0 0.0 0.00 0.00 0.00 67 1018.8
20260904063211 17 190 0.0 0.0 0.00 0.00 0.00 67 1018.8
20260904062659 17 182 0.0 0.0 0.00 0.00 0.00 67 1018.8
20260904062204 17 217 0.0 0.0 0.00 0.00 0.00 67 1018.8
20260904061653 17 176 0.0 0.0 0.00 0.00 0.00 67 1018.8
20260904061157 17 185 0.0 0.0 0.00 0.00 0.00 68 1018.8
20260904060706 16 214 0.0 0.0 0.00 0.00 0.00 68 1018.8
20260904060150 16 360 0.0 0.0 0.00 0.00 0.00 68 1018.8
20260904055653 16 199 0.0 0.0 0.00 0.00 0.00 68 1018.9
20260904055204 16 199 0.0 0.0 0.00 0.00 0.00 68 1018.9
20260904054659 16 197 0.0 0.0 0.00 0.00 0.00 67 1018.9
20260904054153 16 360 0.0 0.0 0.00 0.00 0.00 66 1018.8
20260904053707 16 196 0.0 0.0 0.00 0.00 0.00 66 1018.8
20260904053156 17 197 0.0 0.0 0.00 0.00 0.00 65 1018.8
20260904052658 17 202 0.0 0.0 0.00 0.00 0.00 65 1018.9
20260904052200 17 196 0.0 0.0 0.00 0.00 0.00 65 1018.9
20260904051711 17 196 0.0 0.0 0.00 0.00 0.00 65 1018.9
20260904051156 17 197 0.0 0.0 0.00 0.00 0.00 65 1018.7
20260904050659 17 196 0.0 0.0 0.00 0.00 0.00 64 1018.7
20260904050207 17 198 0.0 0.0 0.00 0.00 0.00 64 1018.7
20260904045650 17 196 0.0 0.0 0.00 0.00 0.00 65 1018.7
20260904045150 17 360 0.0 0.0 0.00 0.00 0.00 64 1018.7
20260904044658 17 205 0.0 0.0 0.00 0.00 0.00 64 1018.7
20260904044210 17 196 0.0 0.0 0.00 0.00 0.00 64 1018.8
20260904043656 17 197 0.0 0.0 0.00 0.00 0.00 64 1018.8
20260904043203 17 196 0.0 0.0 0.00 0.00 0.00 64 1018.8
20260904042651 17 196 0.0 0.0 0.00 0.00 0.00 63 1018.8
20260904042157 17 197 0.0 0.0 0.00 0.00 0.00 64 1018.8
20260904041659 17 198 0.0 0.0 0.00 0.00 0.00 63 1018.8
20260904041200 17 198 0.0 0.0 0.00 0.00 0.00 63 1020.0
20260904040705 17 198 0.0 0.0 0.00 0.00 0.00 63 1020.0
20260904040208 17 206 0.0 0.0 0.00 0.00 0.00 63 1020.0
20260904035650 17 360 0.0 0.0 0.00 0.00 0.00 63 1020.0
20260904035159 17 200 0.0 0.0 0.00 0.00 0.00 63 1020.0
20260904034650 17 202 0.0 0.0 0.00 0.00 0.00 63 1020.0
20260904034159 17 202 0.0 0.0 0.00 0.00 0.00 63 1020.0
20260904033704 17 203 0.0 0.0 0.00 0.00 0.00 63 1020.0
20260904033204 17 204 0.0 0.0 0.00 0.00 0.00 63 1020.0
20260904032706 17 204 0.0 0.0 0.00 0.00 0.00 63 1020.0
20260904032207 17 204 0.0 0.0 0.00 0.00 0.00 63 1020.0
20260904031655 17 203 0.0 0.0 0.00 0.00 0.00 63 1020.0
20260904031158 17 203 0.0 0.0 0.00 0.00 0.00 62 1019.9
20260904030659 17 215 0.0 0.0 0.00 0.00 0.00 62 1019.9
20260904030204 17 194 0.0 0.0 0.00 0.00 0.00 62 1019.9
20260904025705 17 360 0.0 0.0 0.00 0.00 0.00 62 1019.9
20260904025204 17 254 0.0 0.0 0.00 0.00 0.00 62 1019.9
20260904024703 17 360 0.0 0.0 0.00 0.00 0.00 62 1019.9
20260904024211 17 184 0.0 0.0 0.00 0.00 0.00 62 1020.0
20260904023654 17 185 0.0 0.0 0.00 0.00 0.00 63 1020.0
20260904023159 17 186 0.0 0.0 0.00 0.00 0.00 63 1020.0
20260904022653 17 360 0.0 0.0 0.00 0.00 0.00 63 1020.0
20260904022208 17 170 0.0 0.0 0.00 0.00 0.00 63 1020.0
20260904021701 17 164 0.0 0.0 0.00 0.00 0.00 63 1020.0
20260904021156 17 201 0.0 0.0 0.00 0.00 0.00 63 1020.0
20260904020658 17 175 0.0 0.0 0.00 0.00 0.00 63 1020.0
20260904020201 17 176 0.0 0.0 0.00 0.00 0.00 63 1020.0
20260904015703 17 188 0.0 0.0 0.00 0.00 0.00 63 1020.2
20260904015209 17 220 0.0 0.0 0.00 0.00 0.00 63 1020.2
20260904014705 17 222 0.0 0.0 0.00 0.00 0.00 63 1020.2
20260904014205 17 224 0.0 0.0 0.00 0.00 0.00 63 1020.4
20260904013708 17 196 0.0 0.0 0.00 0.00 0.00 63 1020.4
20260904013153 17 229 0.0 0.0 0.00 0.00 0.00 63 1020.4
20260904012659 17 217 0.0 0.0 0.00 0.00 0.00 63 1020.5
20260904012202 17 221 0.0 0.0 0.00 0.00 0.00 64 1020.5
20260904011705 17 217 0.0 0.0 0.00 0.00 0.00 64 1020.5
20260904011204 17 187 0.0 0.0 0.00 0.00 0.00 64 1020.6
20260904010708 17 211 0.0 0.0 0.00 0.00 0.00 64 1020.6
20260904010155 17 217 0.0 0.0 0.00 0.00 0.00 65 1020.6
20260904005659 17 198 0.0 0.0 0.00 0.00 0.00 66 1019.7
20260904005204 17 219 0.0 0.0 0.00 0.00 0.00 66 1019.7
20260904004710 16 198 0.0 0.0 0.00 0.00 0.00 67 1019.7
20260904004157 16 360 0.0 0.0 0.00 0.00 0.00 68 1019.8
20260904003655 16 236 0.0 0.0 0.00 0.00 0.00 68 1019.8
20260904003156 16 166 0.0 0.0 0.00 0.00 0.00 69 1019.8
20260904002705 16 186 0.0 0.0 0.00 0.00 0.00 70 1019.8
20260904002208 16 207 0.0 0.0 0.00 0.00 0.00 71 1019.8
20260904001711 16 241 0.0 0.0 0.00 0.00 0.00 72 1019.8
20260904001202 16 245 0.0 0.0 0.00 0.00 0.00 72 1020.0
20260904000656 16 271 0.0 0.0 0.00 0.00 0.00 73 1020.0
20260904000151 16 271 0.0 0.0 0.00 0.00 0.00 73 1020.0
20260903235701 16 271 0.0 0.0 0.00 0.00 0.00 73 1020.2
20260903235207 16 271 0.0 0.0 0.00 0.00 0.00 73 1020.2
20260903234708 16 271 0.0 0.0 0.00 0.00 0.00 73 1020.2
20260903234157 16 271 0.0 0.0 0.00 0.00 0.00 73 1020.2
20260903233711 16 271 0.0 0.0 0.00 0.00 0.00 73 1020.2
20260903233157 16 271 0.0 0.0 0.00 0.00 0.00 73 1020.2
20260903232702 16 360 0.0 0.0 0.00 0.00 0.00 73 1020.2
20260903232154 16 271 0.0 0.0 0.00 0.00 0.00 73 1020.2
20260903231713 16 271 0.0 0.0 0.00 0.00 0.00 72 1020.2
20260903231155 16 271 0.0 0.0 0.00 0.00 0.00 72 1020.3
20260903230702 16 360 0.0 0.0 0.00 0.00 0.00 72 1020.3
20260903230156 16 271 0.0 0.0 0.00 0.00 0.00 72 1020.3
20260903225701 16 272 0.0 0.0 0.00 0.00 0.00 72 1020.3
20260903225210 16 271 0.0 0.0 0.00 0.00 0.00 71 1020.3
20260903224655 16 271 0.0 0.0 0.00 0.00 0.00 71 1020.3
20260903224158 16 271 0.0 0.0 0.00 0.00 0.00 71 1020.3
20260903223656 16 271 0.0 0.0 0.00 0.00 0.00 71 1020.3
20260903223158 16 271 0.0 0.0 0.00 0.00 0.00 71 1020.3
20260903222702 16 274 0.0 0.0 0.00 0.00 0.00 71 1020.4
20260903222210 16 271 0.0 0.0 0.00 0.00 0.00 71 1020.4
20260903221712 16 271 0.0 0.0 0.00 0.00 0.00 71 1020.4
20260903221159 16 271 0.0 0.0 0.00 0.00 0.00 71 1020.8
20260903220704 16 271 0.0 0.0 0.00 0.00 0.00 71 1020.8
20260903220203 16 271 0.0 0.0 0.00 0.00 0.00 70 1020.8
20260903215711 16 271 0.0 0.0 0.00 0.00 0.00 70 1020.4
20260903215200 16 271 0.0 0.0 0.00 0.00 0.00 69 1020.4
20260903214705 16 271 0.0 0.0 0.00 0.00 0.00 69 1020.4
20260903214208 16 271 0.0 0.0 0.00 0.00 0.00 69 1020.4
20260903213713 16 271 0.0 0.0 0.00 0.00 0.00 68 1020.4
20260903213153 16 271 0.0 0.0 0.00 0.00 0.00 67 1020.4
20260903212658 16 271 0.0 0.0 0.00 0.00 0.00 67 1020.3
20260903212204 16 360 0.0 0.0 0.00 0.00 0.00 68 1020.3
20260903211704 16 271 0.0 0.0 0.00 0.00 0.00 68 1020.3
20260903211210 16 271 0.0 0.0 0.00 0.00 0.00 67 1020.3
20260903210655 17 271 0.0 0.0 0.00 0.00 0.00 67 1020.3
20260903210202 17 271 0.0 0.0 0.00 0.00 0.00 67 1020.3
20260903205708 17 271 0.0 0.0 0.00 0.00 0.00 67 1020.4
20260903205203 17 271 0.0 0.0 0.00 0.00 0.00 67 1020.4
20260903204655 17 275 0.0 0.0 0.00 0.00 0.00 66 1020.4
20260903204158 17 271 0.0 0.0 0.00 0.00 0.00 66 1020.6
20260903203704 17 271 0.0 0.0 0.00 0.00 0.00 66 1020.6
20260903203209 17 271 0.0 0.0 0.00 0.00 0.00 65 1020.6
20260903202711 17 271 0.0 0.0 0.00 0.00 0.00 65 1020.7
20260903202211 18 360 0.0 0.0 0.00 0.00 0.00 65 1020.7
20260903201651 18 271 0.0 0.0 0.00 0.00 0.00 64 1020.7
20260903201152 18 271 0.0 0.0 0.00 0.00 0.00 63 1020.4
20260903200658 18 271 0.0 0.0 0.00 0.00 0.00 63 1020.4
20260903200157 18 271 0.0 0.0 0.00 0.00 0.00 62 1020.4
20260903195705 18 360 0.0 0.0 0.00 0.00 0.00 62 1020.3
20260903195213 18 271 0.0 0.0 0.00 0.00 0.00 61 1020.3
20260903194711 18 271 0.0 0.0 0.00 0.00 0.00 61 1020.3
20260903194154 18 271 0.0 0.0 0.00 0.00 0.00 61 1019.9
20260903193655 18 271 0.0 0.0 0.00 0.00 0.00 60 1019.9
20260903193157 19 306 0.0 0.0 0.00 0.00 0.00 60 1019.9
20260903192656 19 317 0.0 0.0 0.00 0.00 0.00 59 1019.8
20260903192201 19 317 0.0 0.0 0.00 0.00 0.00 59 1019.8
20260903191703 20 317 0.0 0.0 0.00 0.00 0.00 58 1019.8
20260903191206 20 317 0.0 0.0 0.00 0.00 0.00 58 1020.2
20260903190707 20 317 0.0 0.0 0.00 0.00 0.00 57 1020.2
20260903190207 20 317 0.0 0.0 0.00 0.00 0.00 57 1020.2
20260903185706 20 317 0.0 0.0 0.00 0.00 0.00 57 1020.2
20260903185207 20 317 0.0 0.0 0.00 0.00 0.00 56 1020.2
20260903184714 20 206 0.0 0.0 0.00 0.00 0.00 55 1020.2
20260903184213 20 206 0.0 0.0 0.00 0.00 0.00 55 1019.7
20260903183712 21 205 0.0 0.0 0.00 0.00 0.00 55 1019.7
20260903183213 21 204 0.0 0.0 0.00 0.00 0.00 55 1019.7
20260903182656 21 360 0.0 0.0 0.00 0.00 0.00 55 1019.6
20260903182158 21 247 0.0 0.0 0.00 0.00 0.00 54 1019.6
20260903181700 21 360 0.0 0.0 0.00 0.00 0.00 54 1019.6
20260903181202 21 360 0.0 0.0 0.00 0.00 0.00 53 1019.8
20260903180703 21 360 0.0 0.0 0.00 0.00 0.00 53 1019.8
20260903180205 21 360 0.0 0.0 0.00 0.00 0.00 53 1019.8
20260903175710 21 147 0.0 0.0 0.00 0.00 0.00 52 1019.8
20260903175156 21 244 0.0 0.0 0.00 0.00 0.00 52 1019.8
20260903174659 22 219 0.0 0.0 0.00 0.00 0.00 52 1019.8
20260903174210 22 202 0.0 0.0 0.00 0.00 0.00 52 1019.8
20260903173713 22 225 0.0 0.0 0.00 0.00 0.00 52 1019.8
20260903173212 22 219 0.0 0.0 0.00 0.00 0.00 52 1019.8
20260903172711 22 360 0.0 0.0 0.00 0.00 0.00 52 1019.8
20260903172156 22 200 0.0 0.0 0.00 0.00 0.00 51 1019.8
20260903171706 22 203 0.0 0.0 0.00 0.00 0.00 51 1019.8
20260903171210 22 206 0.0 0.0 0.00 0.00 0.00 51 1019.8
20260903170655 22 245 0.0 0.0 0.00 0.00 0.00 50 1019.8
20260903170154 22 360 1.6 0.0 0.00 0.00 0.00 49 1019.8
20260903165659 22 256 1.6 0.0 0.00 0.00 0.00 49 1019.7
20260903165201 23 360 1.6 0.0 0.00 0.00 0.00 49 1019.7
20260903164705 23 360 1.6 0.0 0.00 0.00 0.00 49 1019.7
20260903164211 23 128 3.2 0.0 0.00 0.00 0.00 48 1019.7
20260903163713 23 360 3.2 0.0 0.00 0.00 0.00 48 1019.7
20260903163157 23 360 1.6 0.0 0.00 0.00 0.00 48 1019.7
20260903162700 23 360 1.6 0.0 0.00 0.00 0.00 48 1019.7
20260903162203 23 360 3.2 0.0 0.00 0.00 0.00 48 1019.7
20260903161655 23 288 4.8 0.0 0.00 0.00 0.00 48 1019.7
20260903161205 23 251 3.2 0.0 0.00 0.00 0.00 48 1019.7
20260903160700 23 233 3.2 0.0 0.00 0.00 0.00 48 1019.7
20260903160154 23 296 6.4 0.0 0.00 0.00 0.00 48 1019.7
20260903155703 23 250 8.0 0.0 0.00 0.00 0.00 47 1019.5
20260903155206 24 265 9.7 0.0 0.00 0.00 0.00 46 1019.5
20260903154709 24 360 9.7 0.0 0.00 0.00 0.00 46 1019.5
20260903154159 24 360 8.0 0.0 0.00 0.00 0.00 47 1019.5
20260903153708 24 229 6.4 0.0 0.00 0.00 0.00 46 1019.5
20260903153209 24 273 8.0 0.0 0.00 0.00 0.00 46 1019.5
20260903152654 24 360 11.3 0.0 0.00 0.00 0.00 47 1019.7
20260903152201 23 360 8.0 0.0 0.00 0.00 0.00 47 1019.7
20260903151711 23 236 6.4 0.0 0.00 0.00 0.00 48 1019.7
20260903151211 23 360 9.7 0.0 0.00 0.00 0.00 48 1019.4
20260903150702 23 234 11.3 0.0 0.00 0.00 0.00 47 1019.4
20260903150157 24 276 8.0 0.0 0.00 0.00 0.00 47 1019.4